This is the latest recevied weather packets stored in our database for station/object RV1CJ-14. If no packets are shown the sender has not sent any weather packets the latest 10 day(s).
| Time | Temp. | Humidity | Pressure | Rain* | Wind** | Luminosity | Snow |
|---|---|---|---|---|---|---|---|
| 1777654803 | 12.78° C | 69% | 1012.9 hPa | 0 mm | - | 16 W/m² | - |
| 1777654203 | 12.78° C | 69% | 1013 hPa | 0 mm | - | 18 W/m² | - |
| 1777653603 | 12.78° C | 69% | 1013.1 hPa | 0 mm | - | 14 W/m² | - |
| 1777653003 | 12.78° C | 68% | 1013.1 hPa | 0 mm | - | 9 W/m² | - |
| 1777652403 | 12.78° C | 68% | 1013.1 hPa | 0 mm | - | 12 W/m² | - |
| 1777651803 | 12.78° C | 69% | 1013.4 hPa | 0 mm | - | 16 W/m² | - |
| 1777651203 | 12.78° C | 69% | 1013.4 hPa | 0 mm | - | 18 W/m² | - |
| 1777650603 | 12.78° C | 69% | 1013.5 hPa | 0 mm | - | 18 W/m² | - |
| 1777650003 | 12.22° C | 69% | 1013.6 hPa | 0 mm | - | 19 W/m² | - |
| 1777649403 | 12.22° C | 69% | 1013.8 hPa | 0 mm | - | 21 W/m² | - |
| 1777648803 | 12.22° C | 69% | 1013.8 hPa | 0 mm | - | 23 W/m² | - |
| 1777648203 | 12.78° C | 67% | 1014 hPa | 0 mm | - | 23 W/m² | - |
| 1777647604 | 13.33° C | 66% | 1014.1 hPa | 0 mm | - | 25 W/m² | - |
| 1777647004 | 13.33° C | 65% | 1014.1 hPa | 0 mm | - | 23 W/m² | - |
| 1777646404 | 13.89° C | 63% | 1014.1 hPa | 0 mm | - | 25 W/m² | - |
| 1777645803 | 14.44° C | 63% | 1014.2 hPa | 0 mm | - | 26 W/m² | - |
| 1777645203 | 14.44° C | 63% | 1014.2 hPa | 0 mm | - | 28 W/m² | - |
| 1777644603 | 15° C | 63% | 1014.3 hPa | 0 mm | - | 30 W/m² | - |
| 1777644003 | 15° C | 63% | 1014.4 hPa | 0 mm | - | 28 W/m² | - |
| 1777643403 | 15° C | 62% | 1014.5 hPa | 0 mm | - | 33 W/m² | - |
| 1777642804 | 15° C | 62% | 1014.6 hPa | 0 mm | - | 33 W/m² | - |
| 1777642203 | 15° C | 61% | 1014.7 hPa | 0 mm | - | 35 W/m² | - |
| 1777641603 | 15.56° C | 60% | 1014.7 hPa | 0 mm | - | 40 W/m² | - |
| 1777641003 | 15.56° C | 61% | 1014.8 hPa | 0 mm | - | 56 W/m² | - |
| 1777640404 | 15.56° C | 61% | 1014.8 hPa | 0 mm | - | 58 W/m² | - |
* Rain latest hour (hover to see other rain measurements)
** Current wind speed in m/s (hover to see current wind gust speed)